Hourly Data Report for February 28, 2021

KUGAARUK CLIMATE
NUNAVUT
Current Station Operator: ECCC - MSC

68°32'15.060" N
89°47'47.020" W
15.80 m
2303094
71407
NBB

Download Data

Hourly Data (February 2021)
Hourly Data Report for February 28, 2021
TIME
LST
Temp Definition
°C
Dew Point Definition
°C
Rel Hum Definition
%
Precip. Amount Definition
mm

Wind Dir Definition
10's deg

Wind Spd Definition
km/h
Visibility Definition
km
Stn Press Definition
kPa
Hmdx Definition


Wind Chill Definition


Weather Definition


00:00 -32.0 -36.1 67 0.0 22 20   99.21   -46 LegendNANA
01:00 -31.2 -35.4 67 0.0 21 19   99.18   -44 LegendNANA
02:00 -30.2 -34.3 67 0.0 20 17   99.19   -42 LegendNANA
03:00 -30.4 -34.5 67 0.0 22 16   99.18   -42 LegendNANA
04:00 -31.6 -35.3 70 0.2 5 10   99.20   -41 LegendNANA
05:00 -32.7 -36.2 71 0.0 4 5   99.23   -39 LegendNANA
06:00 -34.0 -37.5 71 0.0 6 7   99.27   -42 LegendNANA
07:00 -34.0 -37.6 70 0.0 6 8   99.31   -43 LegendNANA
08:00 -33.3 -37.0 70 0.0 6 16   99.35   -46 LegendNANA
09:00 -32.5 -36.4 69 0.0 5 15   99.38   -44 LegendNANA
10:00 -31.5 -35.7 67 0.0 7 12   99.44   -42 LegendNANA
11:00 -31.5 -35.6 67 0.2 7 9   99.46   -40 LegendNANA
12:00 -31.0 -35.5 65 0.0 6 11   99.53   -41 LegendNANA
13:00 -30.7 -35.2 65 0.0 13 14   99.60   -42 LegendNANA
14:00 -32.3 -36.6 66 0.0 7 15   99.67   -44 LegendNANA
15:00 -32.4 -36.2 69 0.0 7 13   99.73   -44 LegendNANA
16:00 -34.3 -37.8 70 0.0 6 9   99.81   -44 LegendNANA
17:00 -34.0 -37.6 70 0.0 6 15   99.88   -46 LegendNANA
18:00 -36.2 -39.8 69 0.0 5 16   99.92   -49 LegendNANA
19:00 -38.3 -42.0 69 0.0 6 19   100.01   -53 LegendNANA
20:00 -39.5 -43.1 69 0.0 6 23   100.09   -56 LegendNANA
21:00 -40.3 -43.9 68 0.0 5 19   100.15   -56 LegendNANA
22:00 -40.5 -44.2 68 0.0 8 19   100.20   -56 LegendNANA
23:00 -40.6 -44.4 67 0.0 6 8   100.33   -50 LegendNANA

Notes on Data Quality.

Legend

  • E = Estimated
  • M = Missing
  • NA = Not Available*
  • [empty] = Indicates an unobserved value
Date modified: